Date String (YYYY-MM-DD hh:mm:ss) UTC,Instrument flags,Ambient pressure (hPa),Sample flow (lpm),Bypass flow (lpm),Sample temperature (°C),Ambient temperature (°C),ASC tube jacket temperature (°C),LED temperature (°C),Box temperature (°C),Sample RH (%),Span deviation,Mass concentration (μg/m³),Mass concentration (μg/m³),Mass concentration (μg/m³)
DateTimeUTC,F1_M11,P_M11,Q1_M11,Q2_M11,T1_M11,T2_M11,T3_M11,T4_M11,T5_M11,U1_M11,ZSPAN_M11,X0_M11,X2_M11,X1_M11
2021-08-25 23:00:00,,0830.4,5.01,0.00,29.2,25.9,00.0,38.3,30.5,31.1,0001.6,0032.30,0011.80,0010.14
2021-08-25 23:01:00,,0830.5,5.00,0.00,29.1,26.0,00.0,38.3,30.5,31.3,0001.6,0031.96,0011.84,0010.11
2021-08-25 23:02:00,,0830.4,5.01,0.00,29.1,26.4,00.0,38.2,30.7,31.7,0002.0,0029.98,0011.87,0010.06
2021-08-25 23:03:00,,0830.4,4.99,0.00,29.1,26.9,00.0,38.2,30.8,31.4,0001.6,0029.71,0011.80,0009.99
2021-08-25 23:04:00,,0830.3,5.01,0.00,29.1,27.4,00.0,38.2,30.9,31.1,0001.6,0027.70,0011.81,0009.98
2021-08-25 23:05:00,,0830.3,5.00,0.00,29.2,27.7,00.0,38.2,31.1,31.4,0001.9,0027.28,0011.80,0009.95
2021-08-25 23:06:00,,0830.3,5.00,0.00,29.3,28.0,00.0,38.3,31.2,31.2,0001.9,0027.41,0011.84,0009.95
2021-08-25 23:07:00,,0830.3,5.00,0.00,29.3,28.3,00.0,38.3,31.3,31.1,0002.1,0026.67,0011.88,0009.95
2021-08-25 23:08:00,,0830.3,5.00,0.00,29.4,28.5,00.0,38.3,31.4,30.9,0001.8,0025.55,0012.03,0009.97
2021-08-25 23:09:00,,0830.3,5.00,0.00,29.4,27.9,00.0,38.3,31.2,30.8,0001.8,0026.88,0012.17,0010.00
2021-08-25 23:10:00,,0830.3,5.01,0.00,29.3,26.4,00.0,38.3,30.7,31.0,0001.8,0026.67,0012.21,0010.01
2021-08-25 23:11:00,,0830.3,5.00,0.00,29.2,25.8,00.0,38.3,30.6,31.2,0001.8,0027.61,0012.32,0010.02
2021-08-25 23:12:00,,0830.3,5.00,0.00,29.1,26.1,00.0,38.3,30.7,31.8,0001.6,0027.92,0012.31,0010.02
2021-08-25 23:13:00,,0830.3,5.00,0.00,29.1,26.6,00.0,38.2,30.8,32.0,0001.4,0027.04,0012.34,0010.03
2021-08-25 23:14:00,,0830.4,5.00,0.00,29.1,27.1,00.0,38.2,30.9,31.2,0001.3,0026.51,0012.40,0010.06
2021-08-25 23:15:00,,0830.4,4.99,0.00,29.2,27.5,00.0,38.2,31.0,30.8,0001.5,0027.78,0012.44,0010.07
2021-08-25 23:16:00,,0830.4,5.02,0.00,29.2,27.9,00.0,38.2,31.1,31.1,0001.3,0027.75,0012.45,0010.07
2021-08-25 23:17:00,,0830.4,5.00,0.00,29.3,28.2,00.0,38.2,31.3,30.9,0001.5,0027.70,0012.50,0010.08
2021-08-25 23:18:00,,0830.4,4.99,0.00,29.4,28.5,00.0,38.3,31.3,31.1,0001.5,0029.09,0012.50,0010.09
2021-08-25 23:19:00,,0830.4,5.01,0.00,29.4,28.1,00.0,38.3,31.2,30.7,0001.5,0029.90,0012.37,0010.04
2021-08-25 23:20:00,,0830.3,5.00,0.00,29.3,26.5,00.0,38.3,30.7,31.1,0001.5,0029.49,0012.24,0009.99
2021-08-25 23:21:00,,0830.3,5.01,0.00,29.2,25.8,00.0,38.3,30.5,31.6,0001.4,0030.40,0012.23,0009.96
2021-08-25 23:22:00,,0830.3,4.99,0.00,29.1,26.1,00.0,38.3,30.6,30.8,0001.5,0030.61,0012.21,0009.95
2021-08-25 23:23:00,,0830.3,5.01,0.00,29.1,26.5,00.0,38.2,30.7,30.7,0001.6,0030.68,0012.21,0009.93
2021-08-25 23:24:00,,0830.3,4.99,0.00,29.1,27.0,00.0,38.2,30.8,31.0,0001.8,0031.59,0012.12,0009.91
2021-08-25 23:25:00,,0830.3,5.01,0.00,29.1,27.5,00.0,38.2,31.0,30.9,0001.9,0031.95,0012.06,0009.87
2021-08-25 23:26:00,,0830.3,4.99,0.00,29.2,27.8,00.0,38.2,31.1,30.3,0001.8,0031.33,0011.99,0009.81
2021-08-25 23:27:00,,0830.2,5.01,0.00,29.3,28.1,00.0,38.2,31.2,29.9,0001.7,0030.14,0011.91,0009.76
2021-08-25 23:28:00,,0830.3,4.99,0.00,29.3,28.3,00.0,38.3,31.3,30.2,0001.4,0030.80,0011.84,0009.72
2021-08-25 23:29:00,,0830.2,5.01,0.00,29.4,28.5,00.0,38.3,31.4,30.1,0001.2,0031.15,0011.80,0009.68
2021-08-25 23:30:00,,0830.2,5.00,0.00,29.4,27.6,00.0,38.3,31.1,30.2,0001.2,0030.74,0011.77,0009.65
2021-08-25 23:31:00,,0830.2,5.00,0.00,29.3,26.1,00.0,38.3,30.6,30.4,0001.2,0030.05,0011.77,0009.64
2021-08-25 23:32:00,,0830.2,5.01,0.00,29.1,25.8,00.0,38.3,30.5,30.8,0001.4,0028.29,0011.81,0009.61
2021-08-25 23:33:00,,0830.2,4.99,0.00,29.1,26.2,00.0,38.2,30.7,31.1,0001.3,0026.96,0011.72,0009.58
2021-08-25 23:34:00,,0830.3,5.00,0.00,29.1,26.7,00.0,38.2,30.8,31.7,0001.3,0027.36,0011.65,0009.56
2021-08-25 23:35:00,,0830.3,4.99,0.00,29.1,27.2,00.0,38.2,30.9,31.6,0001.3,0029.09,0011.65,0009.52
2021-08-25 23:36:00,,0830.3,5.00,0.00,29.2,27.6,00.0,38.2,31.0,31.4,0001.3,0030.72,0011.65,0009.53
2021-08-25 23:37:00,,0830.2,5.00,0.00,29.2,28.0,00.0,38.2,31.2,31.3,0001.4,0030.48,0011.67,0009.54
2021-08-25 23:38:00,,0830.3,5.01,0.00,29.3,28.3,00.0,38.2,31.3,31.0,0001.5,0031.15,0011.74,0009.54
2021-08-25 23:39:00,,0830.2,5.00,0.00,29.4,28.5,00.0,38.3,31.4,31.3,0001.4,0031.32,0011.80,0009.53
2021-08-25 23:40:00,,0830.3,4.99,0.00,29.4,27.8,00.0,38.3,31.1,31.2,0001.6,0030.52,0011.84,0009.52
2021-08-25 23:41:00,,0830.3,5.00,0.00,29.3,26.2,00.0,38.3,30.6,31.4,0001.7,0029.70,0011.83,0009.53
2021-08-25 23:42:00,,0830.2,5.01,0.00,29.1,25.8,00.0,38.3,30.5,31.2,0001.6,0029.79,0011.81,0009.52
2021-08-25 23:43:00,,0830.2,5.00,0.00,29.1,26.2,00.0,38.2,30.6,30.8,0001.7,0030.32,0011.73,0009.52
2021-08-25 23:44:00,,0830.2,4.99,0.00,29.0,26.7,00.0,38.2,30.7,31.2,0001.9,0032.20,0011.74,0009.51
2021-08-25 23:45:00,,0830.2,5.00,0.00,29.1,27.2,00.0,38.2,30.9,31.7,0001.8,0032.71,0011.74,0009.47
2021-08-25 23:46:00,,0830.2,4.99,0.00,29.1,27.6,00.0,38.2,31.0,31.2,0001.7,0031.29,0011.70,0009.46
2021-08-25 23:47:00,,0830.1,5.01,0.00,29.2,27.9,00.0,38.2,31.1,30.2,0001.7,0029.39,0011.60,0009.43
2021-08-25 23:48:00,,0830.1,5.00,0.00,29.3,28.2,00.0,38.2,31.2,30.3,0001.6,0029.84,0011.55,0009.39
2021-08-25 23:49:00,,0830.1,5.01,0.00,29.3,28.4,00.0,38.2,31.3,30.5,0001.6,0029.33,0011.48,0009.36
2021-08-25 23:50:00,,0830.1,4.99,0.00,29.4,28.0,00.0,38.3,31.2,30.0,0001.8,0028.29,0011.40,0009.33
2021-08-25 23:51:00,,0830.1,5.00,0.00,29.3,26.3,00.0,38.2,30.8,30.7,0001.7,0028.53,0011.31,0009.32
2021-08-25 23:52:00,,0830.1,5.01,0.00,29.1,25.7,00.0,38.2,30.5,31.0,0001.4,0028.14,0011.26,0009.27
2021-08-25 23:53:00,,0830.1,5.00,0.00,29.1,26.0,00.0,38.2,30.6,31.3,0001.6,0028.31,0011.21,0009.20
2021-08-25 23:54:00,,0830.2,5.01,0.00,29.0,26.5,00.0,38.2,30.7,31.5,0001.5,0027.57,0011.10,0009.14
2021-08-25 23:55:00,,0830.3,4.98,0.00,29.1,27.1,00.0,38.2,30.8,31.4,0001.7,0025.62,0011.05,0009.09
2021-08-25 23:56:00,,0830.2,5.00,0.00,29.1,27.5,00.0,38.2,31.0,31.0,0001.7,0023.95,0010.98,0009.06
2021-08-25 23:57:00,,0830.2,5.01,0.00,29.2,27.9,00.0,38.2,31.1,29.9,0001.7,0023.66,0010.90,0009.00
2021-08-25 23:58:00,,0830.2,4.99,0.00,29.2,28.2,00.0,38.2,31.2,29.9,0001.9,0023.50,0010.91,0008.94
2021-08-25 23:59:00,,0830.2,5.01,0.00,29.3,28.4,00.0,38.2,31.3,30.0,0001.9,0022.70,0010.83,0008.91
